Location: El Frío
(10.0713°N, 67.9111°W)
Time: 18:30:06
(UTC+00:00)

BREEZE-M DEB (TANK) - Pass Details

Date: 11 December 2025
Orbit: 439 x 13145 km, 46.0° (Epoch: 19 January)

Event Time Altitude Azimuth Distance (km) Brightness Sun altitude
Rises 22:53:27 0° 326° (NW) 4,657 7.7 -10.4°
Reaches altitude 10° 22:57:59 10° 338° (NNW) 2,618 6.3 -11.4°
Maximum altitude 23:02:10 25° 34° (NE) 1,154 4.0 -12.4°
Enters shadow 23:03:24 20° 69° (ENE) 1,194 3.9 -12.6°
